User: anonymous   Login
Location: Passau
(48.5830°N, 13.4830°E)
Time: 05:08:41
(UTC+02:00)
Language:

SR - Orbit

View from above orbital plane
View from above orbital plane
View from above satellite
View from above satellite

Ground track
Ground track

The orbit data is extracted from the following two-line orbital elements,

1 00046U 60007B   24141.36637713  .00002136  00000-0  43121-3 0  9997
2 00046  66.6882 130.4134 0197934 143.6729 217.8008 14.51904749346855
Epoch (UTC): 20 May 2024 08:47:34
Eccentricity: 0.0197934
inclination: 66.6882°
perigee height: 579 km
apogee height: 860 km
right ascension of ascending node: 130.4134°
argument of perigee: 143.6729°
revolutions per day: 14.51904749
mean anomaly at epoch: 217.8008°
orbit number at epoch: 34685

The dashed part of the orbit path shows where the satellite is in the earth's shadow,  

DLR